User: anonymous   Login
Location: Hohenfelde
(53.8441°N, 9.6220°E)
Time: 08:07:37
(UTC+00:00)
Language:

Cosmos 1980 Rocket - Orbit

View from above orbital plane
View from above orbital plane
View from above satellite
View from above satellite

Ground track
Ground track

The orbit data is extracted from the following two-line orbital elements,

1 19650U 88102B   20272.00205421 -.00000290  00000-0 -12332-3 0  9994
2 19650  71.0024  14.2691 0013536 167.7232 192.4224 14.15793268645674
Epoch (UTC): 28 September 2020 00:02:57
Eccentricity: 0.0013536
inclination: 71.0024°
perigee height: 830 km
apogee height: 849 km
right ascension of ascending node: 14.2691°
argument of perigee: 167.7232°
revolutions per day: 14.15793268
mean anomaly at epoch: 192.4224°
orbit number at epoch: 64567

The dashed part of the orbit path shows where the satellite is in the earth's shadow,  

DLR